Tracking 20945 objects as of 8-Jul-2020
HD Live streaming from Space Station
objects crossing your sky now

RITE TARGET 2

Track RITE TARGET 2 now!
10-day predictions
RITE TARGET 2 is classified as:


NORAD ID: 28455
Int'l Code: 2002-056G
Perigee: 782.5 km
Apogee: 798.4 km
Inclination: 98.5 °
Period: 100.5 minutes
Semi major axis: 7161 km
RCS: 0.0143 m2 (small)
Launch date: December 14, 2002
Source: Japan (JPN)
Launch site: TANEGASHIMA SPACE CENTER (TNSTA)
aabbcc
Your satellite tracking list
Your tracking list is empty




NASA's NSSDC Master Catalog

Two Line Element Set (TLE):
1 28455U 02056G   20189.56966631 +.00000057 +00000-0 +36919-4 0  9993
2 28455 098.4789 141.2512 0011167 141.5389 218.6593 14.32522703363841
Source of the keplerian elements: AFSPC